Time,TemperatureF,DewpointF,PressureIn,WindDirection,WindDirectionDegrees,WindSpeedMPH,WindSpeedGustMPH,Humidity,HourlyPrecipIn,Conditions,Clouds,dailyrainin,SoftwareType,DateUTC
2013-03-27 00:00:00,35.6,25.4,29.91,West,273,0.0,3.0,66,0.00,,,0.00,Wunderground v.1.15,2013-03-27 04:00:00,
2013-03-27 00:05:00,35.6,25.4,29.91,WSW,257,1.0,3.0,66,0.00,,,0.00,Wunderground v.1.15,2013-03-27 04:05:00,
2013-03-27 00:10:00,35.5,25.3,29.91,WSW,258,1.0,1.0,66,0.00,,,0.00,Wunderground v.1.15,2013-03-27 04:10:00,
2013-03-27 00:15:00,35.4,25.2,29.91,WSW,258,1.0,3.0,66,0.00,,,0.00,Wunderground v.1.15,2013-03-27 04:15:00,
2013-03-27 00:20:00,35.2,25.3,29.91,West,259,0.0,3.0,67,0.00,,,0.00,Wunderground v.1.15,2013-03-27 04:20:00,
2013-03-27 08:50:00,34.9,29.7,29.94,NNW,328,2.0,4.0,81,0.00,,,0.00,Wunderground v.1.15,2013-03-27 12:50:00,
2013-03-27 08:55:00,35.4,30.1,29.95,SW,228,2.0,4.0,81,0.00,,,0.00,Wunderground v.1.15,2013-03-27 12:55:00,
2013-03-27 09:00:00,36.0,30.4,29.94,WSW,257,2.0,3.0,80,0.00,,,0.00,Wunderground v.1.15,2013-03-27 13:00:00,
2013-03-27 09:10:00,37.0,30.8,29.95,SW,224,2.0,3.0,78,0.00,,,0.00,Wunderground v.1.15,2013-03-27 13:10:00,
2013-03-27 09:15:00,37.3,30.7,29.95,West,273,2.0,15.0,77,0.00,,,0.00,Wunderground v.1.15,2013-03-27 13:15:00,
2013-03-27 09:20:00,37.6,31.0,29.95,West,259,3.0,10.0,77,0.00,,,0.00,Wunderground v.1.15,2013-03-27 13:20:00,
2013-03-27 09:25:00,37.6,30.7,29.95,West,276,4.0,10.0,76,0.00,,,0.00,Wunderground v.1.15,2013-03-27 13:25:00,
2013-03-27 09:35:00,38.4,30.8,29.95,West,265,2.0,10.0,74,0.00,,,0.00,Wunderground v.1.15,2013-03-27 13:35:00,
2013-03-27 09:40:00,37.8,30.3,29.95,WSW,252,2.0,2.0,74,0.00,,,0.00,Wunderground v.1.15,2013-03-27 13:40:00,
2013-03-27 09:45:00,37.5,30.0,29.95,West,260,2.0,4.0,74,0.00,,,0.00,Wunderground v.1.15,2013-03-27 13:45:00,
2013-03-27 09:50:00,37.6,30.4,29.95,West,276,3.0,3.0,75,0.00,,,0.00,Wunderground v.1.15,2013-03-27 13:50:00,
2013-03-27 09:55:00,38.5,31.3,29.95,West,277,3.0,10.0,75,0.00,,,0.00,Wunderground v.1.15,2013-03-27 13:55:00,
2013-03-27 10:00:00,38.8,30.9,29.95,West,266,3.0,10.0,73,0.00,,,0.00,Wunderground v.1.15,2013-03-27 14:00:00,
2013-03-27 10:05:00,39.0,31.7,29.95,SW,229,3.0,10.0,75,0.00,,,0.00,Wunderground v.1.15,2013-03-27 14:05:00,
2013-03-27 10:14:00,39.6,31.7,29.95,SW,224,2.0,4.0,73,0.00,,,0.00,Wunderground v.1.15,2013-03-27 14:14:00,
2013-03-27 10:20:00,39.3,31.0,29.95,WSW,240,2.0,10.0,72,0.00,,,0.00,Wunderground v.1.15,2013-03-27 14:20:00,
2013-03-27 10:25:00,39.5,31.2,29.95,WSW,248,2.0,10.0,72,0.00,,,0.00,Wunderground v.1.15,2013-03-27 14:25:00,
2013-03-27 10:30:00,39.5,30.9,29.95,West,273,3.0,3.0,71,0.00,,,0.00,Wunderground v.1.15,2013-03-27 14:30:00,
2013-03-27 10:35:00,40.0,31.7,29.95,West,270,3.0,10.0,72,0.00,,,0.00,Wunderground v.1.15,2013-03-27 14:35:00,
2013-03-27 10:40:00,40.4,32.1,29.95,SW,227,2.0,2.0,72,0.00,,,0.00,Wunderground v.1.15,2013-03-27 14:40:00,
2013-03-27 10:49:00,39.5,31.2,29.96,West,267,2.0,10.0,72,0.00,,,0.00,Wunderground v.1.15,2013-03-27 14:49:00,
2013-03-27 10:55:00,39.6,31.7,29.96,WSW,253,2.0,10.0,73,0.00,,,0.00,Wunderground v.1.15,2013-03-27 14:55:00,
2013-03-27 11:00:00,39.4,31.1,29.96,SW,227,2.0,2.0,72,0.00,,,0.00,Wunderground v.1.15,2013-03-27 15:00:00,
2013-03-27 11:05:00,39.5,31.6,29.96,SSW,209,1.0,10.0,73,0.00,,,0.00,Wunderground v.1.15,2013-03-27 15:05:00,
2013-03-27 11:10:00,39.7,31.4,29.96,West,271,1.0,10.0,72,0.00,,,0.00,Wunderground v.1.15,2013-03-27 15:10:00,
2013-03-27 11:15:00,39.7,31.4,29.96,WSW,250,2.0,10.0,72,0.00,,,0.00,Wunderground v.1.15,2013-03-27 15:15:00,
2013-03-27 11:24:00,40.6,31.9,29.96,WNW,286,4.0,4.0,71,0.00,,,0.00,Wunderground v.1.15,2013-03-27 15:24:00,
2013-03-27 11:30:00,41.3,32.2,29.95,West,271,3.0,3.0,70,0.00,,,0.00,Wunderground v.1.15,2013-03-27 15:30:00,
2013-03-27 11:35:00,41.4,32.0,29.96,West,273,3.0,10.0,69,0.00,,,0.00,Wunderground v.1.15,2013-03-27 15:35:00,
2013-03-27 11:40:00,41.8,32.7,29.96,West,263,3.0,3.0,70,0.00,,,0.00,Wunderground v.1.15,2013-03-27 15:40:00,
2013-03-27 11:45:00,42.9,33.1,29.96,West,263,3.0,10.0,68,0.00,,,0.00,Wunderground v.1.15,2013-03-27 15:45:00,
2013-03-27 11:50:00,43.4,32.4,29.96,SSW,200,2.0,10.0,65,0.00,,,0.00,Wunderground v.1.15,2013-03-27 15:50:00,
2013-03-27 11:55:00,43.3,33.1,29.96,West,266,3.0,10.0,67,0.00,,,0.00,Wunderground v.1.15,2013-03-27 15:55:00,
2013-03-27 12:00:00,43.9,32.9,29.96,WSW,258,3.0,10.0,65,0.00,,,0.00,Wunderground v.1.15,2013-03-27 16:00:00,
2013-03-27 12:10:00,43.8,32.4,29.96,SW,229,4.0,4.0,64,0.00,,,0.00,Wunderground v.1.15,2013-03-27 16:10:00,
2013-03-27 12:15:00,45.1,34.0,29.95,NNW,335,4.0,10.0,65,0.00,,,0.00,Wunderground v.1.15,2013-03-27 16:15:00,
2013-03-27 12:20:00,45.0,33.5,29.96,WNW,289,3.0,10.0,64,0.00,,,0.00,Wunderground v.1.15,2013-03-27 16:20:00,
2013-03-27 12:25:00,43.9,31.7,29.96,NW,319,4.0,10.0,62,0.00,,,0.00,Wunderground v.1.15,2013-03-27 16:25:00,
2013-03-27 12:30:00,43.6,31.8,29.96,WNW,292,4.0,4.0,63,0.00,,,0.00,Wunderground v.1.15,2013-03-27 16:30:00,
2013-03-27 12:35:00,43.8,32.4,29.96,WSW,247,3.0,9.0,64,0.00,,,0.00,Wunderground v.1.15,2013-03-27 16:35:00,
2013-03-27 12:40:00,45.3,33.0,29.95,South,180,3.0,10.0,62,0.00,,,0.00,Wunderground v.1.15,2013-03-27 16:40:00,
2013-03-27 12:50:00,44.2,31.2,29.95,West,277,4.0,4.0,60,0.00,,,0.00,Wunderground v.1.15,2013-03-27 16:50:00,
2013-03-27 13:00:00,44.6,32.0,29.95,SW,215,3.0,10.0,61,0.00,,,0.00,Wunderground v.1.15,2013-03-27 17:00:00,
2013-03-27 13:05:00,45.1,33.2,29.95,WSW,256,4.0,10.0,63,0.00,,,0.00,Wunderground v.1.15,2013-03-27 17:05:00,
2013-03-27 13:15:00,45.1,32.0,29.95,WSW,253,3.0,8.0,60,0.00,,,0.00,Wunderground v.1.15,2013-03-27 17:15:00,
2013-03-27 13:20:00,45.0,31.9,29.95,West,275,2.0,10.0,60,0.00,,,0.00,Wunderground v.1.15,2013-03-27 17:20:00,
2013-03-27 13:25:00,44.6,31.6,29.95,WNW,300,3.0,10.0,60,0.00,,,0.00,Wunderground v.1.15,2013-03-27 17:25:00,
2013-03-27 13:30:00,44.6,31.6,29.95,West,260,3.0,10.0,60,0.00,,,0.00,Wunderground v.1.15,2013-03-27 17:30:00,
2013-03-27 13:35:00,43.6,31.4,29.95,WNW,287,3.0,10.0,62,0.00,,,0.00,Wunderground v.1.15,2013-03-27 17:35:00,
2013-03-27 13:40:00,42.6,32.0,29.95,SSW,204,4.0,4.0,66,0.00,,,0.00,Wunderground v.1.15,2013-03-27 17:40:00,
2013-03-27 13:45:00,42.0,32.2,29.95,WNW,289,3.0,10.0,68,0.00,,,0.00,Wunderground v.1.15,2013-03-27 17:45:00,
2013-03-27 13:54:00,43.4,32.8,29.95,NW,305,3.0,3.0,66,0.00,,,0.00,Wunderground v.1.15,2013-03-27 17:54:00,
2013-03-27 14:00:00,42.9,32.7,29.96,SW,227,3.0,10.0,67,0.00,,,0.00,Wunderground v.1.15,2013-03-27 18:00:00,
2013-03-27 14:05:00,42.0,32.6,29.95,WSW,250,2.0,10.0,69,0.00,,,0.00,Wunderground v.1.15,2013-03-27 18:05:00,
2013-03-27 14:10:00,42.1,33.4,29.95,West,260,2.0,2.0,71,0.00,,,0.00,Wunderground v.1.15,2013-03-27 18:10:00,
2013-03-27 14:15:00,42.6,33.9,29.95,SW,223,1.0,10.0,71,0.00,,,0.00,Wunderground v.1.15,2013-03-27 18:15:00,
2013-03-27 14:20:00,43.0,34.2,29.95,SW,223,1.0,1.0,71,0.00,,,0.00,Wunderground v.1.15,2013-03-27 18:20:00,
2013-03-27 14:30:00,41.4,32.7,29.95,SSE,148,2.0,2.0,71,0.00,,,0.00,Wunderground v.1.15,2013-03-27 18:30:00,
2013-03-27 14:40:00,39.1,32.5,29.96,SW,217,4.0,4.0,77,0.00,,,0.00,Wunderground v.1.15,2013-03-27 18:40:00,
2013-03-27 14:45:00,38.6,32.6,29.96,West,265,4.0,10.0,79,0.00,,,0.01,Wunderground v.1.15,2013-03-27 18:45:00,
2013-03-27 14:50:00,38.7,33.7,29.96,SSW,195,3.0,3.0,82,0.00,,,0.01,Wunderground v.1.15,2013-03-27 18:50:00,
2013-03-27 14:55:00,39.0,33.7,29.96,WSW,240,2.0,8.0,81,0.00,,,0.01,Wunderground v.1.15,2013-03-27 18:55:00,
2013-03-27 15:00:00,38.8,33.5,29.96,West,277,3.0,10.0,81,0.00,,,0.01,Wunderground v.1.15,2013-03-27 19:00:00,
2013-03-27 15:05:00,38.6,33.6,29.96,WSW,257,3.0,10.0,82,0.00,,,0.02,Wunderground v.1.15,2013-03-27 19:05:00,
2013-03-27 15:10:00,38.8,34.1,29.96,West,273,2.0,10.0,83,0.00,,,0.02,Wunderground v.1.15,2013-03-27 19:10:00,
2013-03-27 15:20:00,40.8,36.3,29.96,WSW,248,3.0,3.0,84,0.00,,,0.02,Wunderground v.1.15,2013-03-27 19:20:00,
2013-03-27 15:25:00,40.9,35.5,29.96,WSW,257,4.0,4.0,81,0.00,,,0.02,Wunderground v.1.15,2013-03-27 19:25:00,
2013-03-27 15:30:00,40.9,35.2,29.96,West,278,4.0,12.0,80,0.00,,,0.02,Wunderground v.1.15,2013-03-27 19:30:00,
2013-03-27 15:35:00,40.2,34.5,29.97,West,261,4.0,12.0,80,0.00,,,0.02,Wunderground v.1.15,2013-03-27 19:35:00,
2013-03-27 15:40:00,39.8,34.1,29.97,WSW,252,3.0,3.0,80,0.00,,,0.02,Wunderground v.1.15,2013-03-27 19:40:00,
2013-03-27 15:45:00,39.7,34.0,29.97,West,276,3.0,10.0,80,0.00,,,0.02,Wunderground v.1.15,2013-03-27 19:45:00,
2013-03-27 15:55:00,40.0,34.6,29.97,West,259,4.0,10.0,81,0.00,,,0.02,Wunderground v.1.15,2013-03-27 19:55:00,
2013-03-27 16:00:00,40.0,34.3,29.97,WNW,288,3.0,10.0,80,0.00,,,0.02,Wunderground v.1.15,2013-03-27 20:00:00,
2013-03-27 16:05:00,39.8,33.8,29.97,SSW,194,3.0,10.0,79,0.00,,,0.02,Wunderground v.1.15,2013-03-27 20:05:00,
2013-03-27 16:10:00,39.9,34.2,29.97,WSW,257,3.0,11.0,80,0.00,,,0.02,Wunderground v.1.15,2013-03-27 20:10:00,
2013-03-27 16:15:00,39.5,33.5,29.97,WNW,283,4.0,11.0,79,0.00,,,0.02,Wunderground v.1.15,2013-03-27 20:15:00,
2013-03-27 16:20:00,39.7,33.7,29.97,West,263,4.0,4.0,79,0.00,,,0.02,Wunderground v.1.15,2013-03-27 20:20:00,
2013-03-27 16:25:00,40.3,34.0,29.97,SW,232,3.0,10.0,78,0.00,,,0.02,Wunderground v.1.15,2013-03-27 20:25:00,
2013-03-27 16:30:00,39.8,32.8,29.97,West,259,4.0,4.0,76,0.00,,,0.02,Wunderground v.1.15,2013-03-27 20:30:00,
2013-03-27 16:40:00,40.4,33.8,29.97,SW,219,2.0,2.0,77,0.00,,,0.02,Wunderground v.1.15,2013-03-27 20:40:00,
2013-03-27 16:50:00,39.7,32.8,29.98,West,269,2.0,10.0,76,0.00,,,0.02,Wunderground v.1.15,2013-03-27 20:50:00,
2013-03-27 16:55:00,38.9,32.3,29.98,WSW,258,2.0,10.0,77,0.00,,,0.02,Wunderground v.1.15,2013-03-27 20:55:00,
2013-03-27 17:00:00,38.4,32.1,29.98,NW,320,3.0,10.0,78,0.00,,,0.02,Wunderground v.1.15,2013-03-27 21:00:00,
2013-03-27 17:05:00,37.8,31.9,29.99,SW,215,4.0,10.0,79,0.00,,,0.02,Wunderground v.1.15,2013-03-27 21:05:00,
2013-03-27 17:10:00,37.2,31.6,29.99,WSW,248,4.0,4.0,80,0.00,,,0.02,Wunderground v.1.15,2013-03-27 21:10:00,
2013-03-27 17:19:00,36.4,31.7,29.99,WSW,256,3.0,3.0,83,0.00,,,0.02,Wunderground v.1.15,2013-03-27 21:19:00,
2013-03-27 17:25:00,36.3,31.6,29.99,WSW,241,2.0,4.0,83,0.00,,,0.02,Wunderground v.1.15,2013-03-27 21:25:00,
2013-03-27 17:30:00,36.3,31.9,29.99,WSW,252,2.0,2.0,84,0.00,,,0.02,Wunderground v.1.15,2013-03-27 21:30:00,
2013-03-27 17:35:00,36.1,31.7,29.99,West,273,2.0,4.0,84,0.00,,,0.02,Wunderground v.1.15,2013-03-27 21:35:00,
2013-03-27 17:40:00,35.7,31.6,29.99,West,259,3.0,10.0,85,0.00,,,0.02,Wunderground v.1.15,2013-03-27 21:40:00,
2013-03-27 17:45:00,35.6,31.5,30.00,WNW,292,3.0,10.0,85,0.00,,,0.02,Wunderground v.1.15,2013-03-27 21:45:00,
2013-03-27 17:54:00,35.7,31.9,30.00,West,260,2.0,10.0,86,0.00,,,0.02,Wunderground v.1.15,2013-03-27 21:54:00,
2013-03-27 17:59:00,35.6,31.8,30.00,West,259,2.0,2.0,86,0.00,,,0.02,Wunderground v.1.15,2013-03-27 21:59:00,
2013-03-27 18:05:00,35.6,31.8,30.00,West,275,1.0,4.0,86,0.00,,,0.02,Wunderground v.1.15,2013-03-27 22:05:00,
2013-03-27 18:10:00,35.3,31.5,30.00,West,263,2.0,10.0,86,0.00,,,0.02,Wunderground v.1.15,2013-03-27 22:10:00,
2013-03-27 18:15:00,35.2,31.7,30.00,West,276,2.0,10.0,87,0.00,,,0.02,Wunderground v.1.15,2013-03-27 22:15:00,
2013-03-27 18:20:00,35.3,31.8,30.00,West,276,2.0,2.0,87,0.00,,,0.02,Wunderground v.1.15,2013-03-27 22:20:00,
2013-03-27 18:25:00,35.3,31.8,30.00,WSW,246,2.0,10.0,87,0.00,,,0.02,Wunderground v.1.15,2013-03-27 22:25:00,
2013-03-27 18:30:00,35.2,32.0,30.00,WSW,245,2.0,10.0,88,0.00,,,0.02,Wunderground v.1.15,2013-03-27 22:30:00,
2013-03-27 18:40:00,35.1,31.9,30.01,WSW,238,3.0,3.0,88,0.00,,,0.02,Wunderground v.1.15,2013-03-27 22:40:00,
2013-03-27 18:45:00,35.0,31.8,30.01,WSW,251,3.0,10.0,88,0.00,,,0.02,Wunderground v.1.15,2013-03-27 22:45:00,
2013-03-27 18:50:00,34.8,31.6,30.01,WNW,286,2.0,10.0,88,0.00,,,0.02,Wunderground v.1.15,2013-03-27 22:50:00,
2013-03-27 18:55:00,34.6,31.4,30.01,WNW,288,2.0,10.0,88,0.00,,,0.02,Wunderground v.1.15,2013-03-27 22:55:00,
2013-03-27 19:00:00,34.4,31.2,30.01,West,266,2.0,10.0,88,0.00,,,0.02,Wunderground v.1.15,2013-03-27 23:00:00,
2013-03-27 19:05:00,34.2,31.0,30.01,West,272,2.0,10.0,88,0.00,,,0.03,Wunderground v.1.15,2013-03-27 23:05:00,
2013-03-27 19:10:00,34.1,30.9,30.01,WNW,293,1.0,1.0,88,0.00,,,0.03,Wunderground v.1.15,2013-03-27 23:10:00,
2013-03-27 19:20:00,34.1,30.9,30.01,WNW,283,1.0,1.0,88,0.00,,,0.03,Wunderground v.1.15,2013-03-27 23:20:00,
2013-03-27 19:25:00,34.2,31.3,30.01,WSW,242,1.0,10.0,89,0.00,,,0.03,Wunderground v.1.15,2013-03-27 23:25:00,
2013-03-27 19:30:00,34.2,31.3,30.01,WSW,256,1.0,10.0,89,0.00,,,0.03,Wunderground v.1.15,2013-03-27 23:30:00,
2013-03-27 19:35:00,34.1,31.2,30.02,West,278,1.0,10.0,89,0.00,,,0.03,Wunderground v.1.15,2013-03-27 23:35:00,
2013-03-27 19:40:00,34.0,31.1,30.02,West,271,1.0,10.0,89,0.00,,,0.03,Wunderground v.1.15,2013-03-27 23:40:00,
2013-03-27 19:45:00,33.9,31.0,30.02,SSW,210,2.0,10.0,89,0.00,,,0.03,Wunderground v.1.15,2013-03-27 23:45:00,
2013-03-27 19:50:00,33.8,30.9,30.02,WSW,242,2.0,2.0,89,0.00,,,0.03,Wunderground v.1.15,2013-03-27 23:50:00,
2013-03-27 20:00:00,33.7,30.8,30.02,West,264,1.0,10.0,89,0.00,,,0.03,Wunderground v.1.15,2013-03-28 00:00:00,
2013-03-27 20:05:00,33.7,30.8,30.02,West,265,1.0,10.0,89,0.00,,,0.03,Wunderground v.1.15,2013-03-28 00:05:00,
2013-03-27 20:10:00,33.6,30.7,30.02,West,265,1.0,1.0,89,0.00,,,0.03,Wunderground v.1.15,2013-03-28 00:10:00,
2013-03-27 20:15:00,33.6,30.7,30.02,WSW,246,1.0,10.0,89,0.00,,,0.03,Wunderground v.1.15,2013-03-28 00:15:00,
2013-03-27 20:20:00,33.5,30.6,30.01,WSW,253,1.0,10.0,89,0.00,,,0.03,Wunderground v.1.15,2013-03-28 00:20:00,
2013-03-27 20:25:00,33.5,30.6,30.02,WSW,255,1.0,10.0,89,0.00,,,0.03,Wunderground v.1.15,2013-03-28 00:25:00,
2013-03-27 20:30:00,33.4,30.5,30.02,West,259,1.0,10.0,89,0.00,,,0.03,Wunderground v.1.15,2013-03-28 00:30:00,
2013-03-27 20:40:00,33.0,30.1,30.03,West,261,1.0,10.0,89,0.00,,,0.03,Wunderground v.1.15,2013-03-28 00:40:00,
2013-03-27 20:45:00,32.8,30.2,30.03,West,260,1.0,10.0,90,0.00,,,0.03,Wunderground v.1.15,2013-03-28 00:45:00,
2013-03-27 20:50:00,32.7,30.1,30.03,West,260,1.0,1.0,90,0.00,,,0.03,Wunderground v.1.15,2013-03-28 00:50:00,
2013-03-27 20:55:00,32.6,30.0,30.03,West,260,0.0,10.0,90,0.00,,,0.03,Wunderground v.1.15,2013-03-28 00:55:00,
2013-03-27 21:00:00,32.5,29.9,30.03,West,260,0.0,10.0,90,0.00,,,0.03,Wunderground v.1.15,2013-03-28 01:00:00,
2013-03-27 21:05:00,32.5,29.9,30.03,West,268,1.0,10.0,90,0.00,,,0.03,Wunderground v.1.15,2013-03-28 01:05:00,
2013-03-27 21:10:00,32.4,29.8,30.03,West,268,0.0,10.0,90,0.00,,,0.03,Wunderground v.1.15,2013-03-28 01:10:00,
2013-03-27 21:20:00,32.4,29.8,30.03,West,268,0.0,10.0,90,0.00,,,0.03,Wunderground v.1.15,2013-03-28 01:20:00,
2013-03-27 21:25:00,32.3,30.0,30.03,West,268,0.0,10.0,91,0.00,,,0.03,Wunderground v.1.15,2013-03-28 01:25:00,
2013-03-27 21:30:00,32.3,30.0,30.03,West,268,0.0,10.0,91,0.00,,,0.03,Wunderground v.1.15,2013-03-28 01:30:00,
2013-03-27 21:35:00,32.2,29.9,30.04,West,268,0.0,10.0,91,0.00,,,0.03,Wunderground v.1.15,2013-03-28 01:35:00,
2013-03-27 21:40:00,32.2,29.9,30.04,West,268,0.0,10.0,91,0.00,,,0.03,Wunderground v.1.15,2013-03-28 01:40:00,
2013-03-27 21:45:00,32.2,29.9,30.04,West,268,0.0,10.0,91,0.00,,,0.03,Wunderground v.1.15,2013-03-28 01:45:00,
2013-03-27 21:50:00,32.2,29.9,30.04,West,268,0.0,10.0,91,0.00,,,0.03,Wunderground v.1.15,2013-03-28 01:50:00,
2013-03-27 21:59:00,32.3,30.0,30.04,West,268,0.0,10.0,91,0.00,,,0.03,Wunderground v.1.15,2013-03-28 01:59:00,
2013-03-27 22:05:00,32.3,30.0,30.04,West,268,0.0,10.0,91,0.00,,,0.03,Wunderground v.1.15,2013-03-28 02:05:00,
2013-03-27 22:10:00,32.3,30.0,30.04,West,268,0.0,10.0,91,0.00,,,0.03,Wunderground v.1.15,2013-03-28 02:10:00,
2013-03-27 22:15:00,32.3,30.0,30.04,West,268,0.0,10.0,91,0.00,,,0.03,Wunderground v.1.15,2013-03-28 02:15:00,
2013-03-27 22:20:00,32.3,30.0,30.04,West,268,0.0,10.0,91,0.00,,,0.03,Wunderground v.1.15,2013-03-28 02:20:00,
2013-03-27 22:25:00,32.3,30.2,30.03,West,268,0.0,10.0,92,0.00,,,0.03,Wunderground v.1.15,2013-03-28 02:25:00,
2013-03-27 22:35:00,32.3,30.2,30.03,West,267,1.0,10.0,92,0.00,,,0.03,Wunderground v.1.15,2013-03-28 02:35:00,
2013-03-27 22:45:00,32.2,30.1,30.03,West,267,0.0,10.0,92,0.00,,,0.03,Wunderground v.1.15,2013-03-28 02:45:00,
2013-03-27 22:50:00,32.1,30.0,30.03,West,267,0.0,10.0,92,0.00,,,0.03,Wunderground v.1.15,2013-03-28 02:50:00,
2013-03-27 22:55:00,32.1,30.0,30.03,West,266,0.0,10.0,92,0.00,,,0.03,Wunderground v.1.15,2013-03-28 02:55:00,
2013-03-27 23:00:00,32.2,30.1,30.03,West,266,0.0,10.0,92,0.00,,,0.03,Wunderground v.1.15,2013-03-28 03:00:00,
2013-03-27 23:09:00,32.1,30.0,30.03,West,266,0.0,10.0,92,0.00,,,0.03,Wunderground v.1.15,2013-03-28 03:09:00,
2013-03-27 23:15:00,32.2,30.1,30.03,West,266,0.0,10.0,92,0.00,,,0.03,Wunderground v.1.15,2013-03-28 03:15:00,
2013-03-27 23:20:00,32.3,30.2,30.03,West,266,0.0,10.0,92,0.00,,,0.03,Wunderground v.1.15,2013-03-28 03:20:00,
2013-03-27 23:25:00,32.3,30.2,30.03,West,266,0.0,10.0,92,0.00,,,0.03,Wunderground v.1.15,2013-03-28 03:25:00,
2013-03-27 23:30:00,32.2,30.1,30.03,West,266,0.0,10.0,92,0.00,,,0.03,Wunderground v.1.15,2013-03-28 03:30:00,
2013-03-27 23:35:00,32.3,30.2,30.03,West,266,0.0,10.0,92,0.00,,,0.03,Wunderground v.1.15,2013-03-28 03:35:00,
2013-03-27 23:45:00,32.3,30.2,30.03,West,266,0.0,10.0,92,0.00,,,0.03,Wunderground v.1.15,2013-03-28 03:45:00,
2013-03-27 23:55:00,32.2,30.4,30.03,West,266,0.0,10.0,93,0.00,,,0.03,Wunderground v.1.15,2013-03-28 03:55:00,